Regional Weather Roundup
Issued by NWS

Home | Current Version | Previous Version | Graphics & Text | Print | Product List | Glossary On
Versions: 1 2 3 4 5 6 7 8 9 10 11 12 13 14 15 16 17 18 19 20 21 22 23 24 25 26 27 28 29 30 31 32 33 34 35 36 37 38 39 40 41 42 43 44 45 46 47 48 49 50
000
ASUS43 KBIS 220702
RWRND

NORTH DAKOTA REGIONAL WEATHER ROUNDUP
NATIONAL WEATHER SERVICE BISMARCK ND
100 AM CST MON JAN 22 2018

NOTE: "FAIR" INDICATES FEW OR NO CLOUDS BELOW 12,000 FEET WITH NO
SIGNIFICANT WEATHER AND/OR OBSTRUCTIONS TO VISIBILITY.


NDZ001>003-009>011-017-220800-
NORTHWEST NORTH DAKOTA

CITY           SKY/WX    TMP DP  RH WIND       PRES   REMARKS
WILLISTON      CLEAR     11   9  92 CALM      30.01F
MINOT          CLEAR     15  12  88 CALM      30.00F
MINOT AFB      CLEAR      9   6  87 W5        30.00S WCI   0
$$

NDZ018>021-031>035-040>046-220800-
SOUTHWEST NORTH DAKOTA

CITY           SKY/WX    TMP DP  RH WIND       PRES   REMARKS
BISMARCK       FOG       16  15  96 E3        30.05S VSB 1/2
DICKINSON      CLEAR     17  13  84 W8        29.96F WCI   7
GARRISON         N/A      6   2  83 N6        30.00F WCI  -4
HETTINGER ARPT CLEAR     14  11  87 W7        30.00F WCI   4
$$

NDZ004>008-012>016-024-026-027-054-220800-
NORTHEAST NORTH DAKOTA

CITY           SKY/WX    TMP DP  RH WIND       PRES   REMARKS
GRAND FORKS    CLOUDY    23  21  92 N3        30.10F
GRND FRKS AFB  CLOUDY    22  20  91 N5        30.10F WCI  16
$$

NDZ022-023-025-028>030-036>039-047>053-220800-
SOUTHEAST NORTH DAKOTA

CITY           SKY/WX    TMP DP  RH WIND       PRES   REMARKS
FARGO          CLOUDY    26  23  88 NE10      30.05F WCI  16
JAMESTOWN      CLOUDY    25  22  88 NE3       30.03F
$$





USA.gov is the U.S. government's official web portal to all federal, state and local government web resources and services.